Location: Newark
(44.4167°N, 26.1000°E)
Time: 00:25:57
(UTC+00:00)

ISS - Visible Passes

Search period start: 26 September 2020 00:00
Search period end: 06 October 2020 00:00
Orbit: 419 x 420 km, 51.6° (Epoch: 26 September)

Date Brightness Start Highest point End Pass type
(mag) Time Alt. Az. Time Alt. Az. Time Alt. Az.
26 Sep -2.0 16:36:36 10° WNW 16:39:33 27° NNW 16:42:29 10° NE visible
26 Sep -1.8 18:14:11 10° NW 18:16:31 24° N 18:16:31 24° N visible
27 Sep -1.9 17:26:42 10° NW 17:29:29 23° N 17:30:53 18° NE visible
27 Sep -0.3 19:03:34 10° NW 19:03:50 12° NW 19:03:50 12° NW visible
28 Sep -1.9 16:39:08 10° WNW 16:41:54 23° N 16:44:40 10° NE visible
28 Sep -1.8 18:16:13 10° NW 18:18:11 27° NNW 18:18:11 27° NNW visible
29 Sep -2.4 17:28:48 10° NW 17:31:48 29° NNE 17:32:33 26° NE visible
30 Sep -2.1 16:41:21 10° NW 16:44:13 25° N 16:46:56 11° ENE visible
30 Sep -1.8 18:18:05 10° NW 18:19:53 29° NW 18:19:53 29° NW visible
01 Oct -3.3 17:30:41 10° NW 17:33:58 47° NNE 17:34:17 45° NE visible
02 Oct -2.8 16:43:16 10° NW 16:46:25 35° NNE 16:48:44 16° E visible
02 Oct -1.5 18:20:04 10° WNW 18:21:42 25° W 18:21:42 25° W visible
03 Oct -3.8 17:32:32 10° WNW 17:35:55 78° SSW 17:36:12 70° SSE visible
04 Oct -3.7 16:45:04 10° NW 16:48:26 69° NNE 16:50:47 18° ESE visible
04 Oct -0.9 18:22:31 10° W 18:23:45 16° WSW 18:23:45 16° WSW visible
05 Oct -2.2 17:34:38 10° WNW 17:37:37 29° SW 17:38:25 26° SSW visible
